Accueil
METAR-TAF:

METAR-TAF

Aéroports :

Brown Field Municipal Airport

San Diego, Californie, États-Unis

latitude: 32-34-31N, longitude: 116-59-35W, altitude: 164 m

Observation

Le bulletin a été fait il y a 30 minutes, à 07:53 UTC
Vent calme
Température 11°C
Humidité 25%
Pression 1017 hPa
Visibilité: 16.1 km
Ciel clair

METAR: KSDM 020753Z AUTO 00000KT 10SM CLR 11/M08 A3002 RMK AO2 SLP161 T01111083 402390072

Heure: 00:23 (08:23 UTC)


TAF: absent

Observations et prévisions météorologiques de plus de 4000 aéroports (messages METAR et TAF).

Les stations disponibles sont représentées par des disques jaunes et rouges sur la carte.

Passer la souris dessus pour voir le nom de la station.

Cliquer dessus pour voir les observations et prévisions météorologiques.

Pour changer de carte: cliquez sur les boutons verts avec une croix noire pour zoomer, sur le bouton vert avec un tiret pour effectuer un zoom arrière, ou sur les flèches vertes pour les cartes adjacentes.


METAR-TAF: